Tracking 30692 objects as of 16-Jun-2025
HD Live streaming from Space Station
objects crossing your sky now

STARLINK-31535

Track STARLINK-31535 now!
10-day predictions


NORAD ID: 59504
Int'l Code: 2024-071W
Perigee: 489.5 km
Apogee: 490.9 km
Inclination: 43.0 °
Period: 94.3 minutes
Semi major axis: 6861 km
RCS: Unknown
Launch date: April 13, 2024
Source: United States (US)
Launch site: AIR FORCE EASTERN TEST RANGE (AFETR)
Your satellite tracking list
Your tracking list is empty




NASA's NSSDC Master Catalog

Two Line Element Set (TLE):
1 59504U 24071W   25166.57178793 -.00000817  00000-0 -20187-4 0  9994
2 59504  43.0023  56.0439 0001008 267.9194  92.1542 15.27565820 67222
Source of the keplerian elements: AFSPC